Regional Weather Roundup
Issued by NWS

Home | Current Version | Previous Version | Graphics & Text | Print | Product List | Glossary On
Versions: 1 2 3 4 5 6 7 8 9 10 11 12 13 14 15 16 17 18 19 20 21 22 23 24 25 26 27 28 29 30 31 32 33 34 35 36 37 38 39 40 41 42 43 44 45 46 47 48 49 50
000
ASUS43 KMPX 130110
RWRMN
WEATHER ROUNDUP FOR MINNESOTA
NATIONAL WEATHER SERVICE TWIN CITIES/CHANHASSEN MN
800 PM CDT SAT JUL 12 2014


NOTE: "FAIR" INDICATES FEW OR NO CLOUDS BELOW 12,000 FEET WITH NO
SIGNIFICANT WEATHER AND/OR OBSTRUCTIONS TO VISIBILITY. N/A MEANS
CURRENT SKY AND/OR WEATHER CONDITIONS ARE NOT AVAILABLE.

MNZ060>063-068>070-130200-
   Twin Cities Metro

CITY           SKY/WX    TMP DP  RH WIND       PRES   REMARKS
TWIN CITIES    PTCLDY    74  65  73 W3        29.93S
ST PAUL        PTCLDY    74  66  76 CALM      29.92F
CRYSTAL        CLEAR     75  61  61 W6        29.91F
BLAINE         PTCLDY    75  66  73 W5        29.92F
LAKEVILLE      PTCLDY    72  64  78 CALM      29.95S
EDEN PRAIRIE   CLEAR     74  66  76 W5        29.93S
SOUTH ST PAUL  CLEAR     74  64  72 W3        29.93S
LAKE ELMO      FAIR      72  66  83 W3        29.93S
$$
MNZ001>005-007-008-013>017-022>024-027-028-130200-
   Northwest Minnesota

CITY           SKY/WX    TMP DP  RH WIND       PRES   REMARKS
BEMIDJI        SUNNY     72  56  58 W7        29.89F
HALLOCK        PTSUNNY   61  57  88 NW9       29.92S
ROSEAU         CLOUDY    57  54  88 W8        29.90F
WARROAD        CLOUDY    59  55  88 W8        29.89R
THIEF RVR FALL CLOUDY    61  55  82 NW16G24   29.94R
CROOKSTON      LGT RAIN  63  57  82 N14G24    29.94R
FOSSTON        PTSUNNY   70  48  46 N35G40    29.93R
DETROIT LAKES  SUNNY     75  57  53 NW9G16    29.94S
MOORHEAD       SUNNY     79  54  41 NW14G20   29.92S
PARK RAPIDS    MOSUNNY   73  60  63 W8        29.92S
$$
MNZ006-009>011-018-025>026-130200-
   North Central Minnesota

CITY           SKY/WX    TMP DP  RH WIND       PRES   REMARKS
BAUDETTE       LGT RAIN  60  54  80 NW9       29.89F
FLAG ISLAND    PTSUNNY   61  55  82 W15       29.85R
INTL FALLS     LGT RAIN  58  53  84 NW9G20    29.85R
WASKISH        CLOUDY    63  54  72 NW15G26   29.90R
BIG FORK       CLEAR     72  55  56 SW8       29.87F
LONGVILLE      CLEAR     72  57  60 W5        29.90F
GRAND RAPIDS   CLEAR     72  54  53 W5        29.89F
CRANE LAKE     CLEAR     70  54  56 CALM      29.83F
ORR            CLEAR     70  52  52 SW5       29.82F
COOK           CLEAR     72  54  53 W8        29.85F
$$
MNZ012-019>021-037-130200-
   Northeast Minnesota

CITY           SKY/WX    TMP DP  RH WIND       PRES   REMARKS
DULUTH         PTCLDY    71  58  63 W10       29.88S
ELY            PTCLDY    72  55  56 SW7       29.84F
HIBBING        CLEAR     73  51  46 W12G21    29.88S
EVELETH        CLEAR     72  59  64 W7        29.88F
DULUTH HARBOR  CLEAR     73  63  68 SW8       29.87R
TWO HARBORS    CLEAR     70  61  73 SW5       29.85S
SILVER BAY     PTCLDY    66  63  88 CALM      29.85R
GRAND MARAIS     N/A     49  45  86 W3        29.84S
G MARAIS ARPRT MOCLDY    63  54  72 S3        29.88R
$$
MNZ029>031-032-039>041-046>048-054>057-064-130200-
   West Central Minnesota

CITY           SKY/WX    TMP DP  RH WIND       PRES   REMARKS
FERGUS FALLS   SUNNY     75  57  53 W9        29.92F
WHEATON        SUNNY     75  61  60 W5        29.96F
MORRIS         SUNNY     75  63  64 W7        29.95F
ALEXANDRIA     SUNNY     74  61  63 W7        29.97F
ELBOW LAKE     FAIR      73  61  64 W8        29.94F
WADENA         SUNNY     72  59  64 W6        29.93F
GLENWOOD       CLEAR     73  61  64 W6        29.98S
APPLETON       SUNNY     79  63  57 W6        29.96S
BENSON         SUNNY     75  63  64 NW5       29.97S
ORTONVILLE     SUNNY     79  59  50 W8        29.97S
MADISON        SUNNY     79  64  61 NW9       29.98S
WILLMAR        FAIR      75  63  64 W8        29.98S
$$
MNZ033>034-036-042>043-049>051-058-059-130200-
   Central Minnesota

CITY           SKY/WX    TMP DP  RH WIND       PRES   REMARKS
ST CLOUD       MOCLDY    75  60  59 W8        29.94R
SAUK CENTRE    FAIR      73  60  63 W6        29.97S
PAYNESVILLE    HVY RAIN  70  61  73 SW6       29.97S
AITKIN         CLEAR     73  61  64 W3        29.91S
PINE RIVER     CLEAR     72  61  68 W3        29.95F
BRAINERD       CLEAR     77  58  51 W7        29.93S
STAPLES        CLEAR     72  59  64 W7        29.94S
LONG PRAIRIE   FAIR      72  59  64 W6        29.96F
LITTLE FALLS   CLEAR     72  57  60 W8        29.95S
LITCHFIELD     CLEAR     75  64  69 W9        29.96S
BUFFALO        CLEAR     74  61  65 W6        29.95S
MAPLE LAKE     CLEAR     74  63  66 W5        29.95S
$$
MNZ037-044-045-052-053-130200-
   East Central Minnesota

CITY           SKY/WX    TMP DP  RH WIND       PRES   REMARKS
PRINCETON      CLEAR     73  63  68 W6        29.93S
MORA           CLEAR     70  59  68 W5        29.93S
CAMBRIDGE      PTCLDY    73  61  64 SW3       29.91S
RUSH CITY      CLEAR     71  61  71 SW3       29.91F
MOOSE LAKE     PTCLDY    70  59  68 W5        29.89S
HINCKLEY       FAIR      70  63  78 W3        29.91S
CLOQUET        MOCLDY    72  57  60 W7        29.90S
MCGREGOR       PTCLDY    72  61  68 W6        29.91S
$$
MNZ071>073-080-081-089-090-097-098-130200-
   Southwest Minnesota

CITY           SKY/WX    TMP DP  RH WIND       PRES   REMARKS
MONTEVIDEO     CLEAR     79  68  69 NW5       29.98S
GRANITE FALLS  CLEAR     75  65  70 W6        29.99S
CANBY          MOSUNNY   77  65  66 W8        30.00S
MARSHALL       CLEAR     75  66  73 NW6       29.98S
REDWOOD FALLS  CLEAR     75  66  73 W8        29.97S
OLIVIA         CLEAR     73  66  78 W8        29.97S
PIPESTONE      SUNNY     77  64  65 N9        30.02F
WINDOM         CLEAR     75  64  69 NW8       30.00S
WORTHINGTON    CLEAR     75  66  73 N6        30.02S
JACKSON        CLEAR     75  63  64 NW7       30.00R
TRACY          CLEAR     75  67  76 NW3       30.00S
SLAYTON        PTCLDY    76  64  68 CALM      30.02S
$$
MNZ065>067-074>077-082>085-091>093-130200-
   South Central Minnesota

CITY           SKY/WX    TMP DP  RH WIND       PRES   REMARKS
MANKATO        PTCLDY    73  64  73 W8        29.96S
NEW ULM        CLEAR     73  70  88 W8        29.97S
ST JAMES       PTCLDY    75  64  69 NW6       29.98S
FAIRMONT       PTCLDY    75  63  64 N6        29.98R
GLENCOE        CLEAR     75  63  65 W6        29.95S
FARIBAULT      PTCLDY    75  63  64 NW3       29.96S
OWATONNA       PTCLDY    73  64  73 NW6       29.97S
WASECA         MOCLDY    72  61  68 NW7       29.98S
ALBERT LEA     PTCLDY    73  66  78 NW6       29.96R
$$
MNZ078>079-086>088-094>096-130200-
   Southeast Minnesota

CITY           SKY/WX    TMP DP  RH WIND       PRES   REMARKS
ROCHESTER      CLOUDY    70  67  90 W3        29.96R
RED WING       PTCLDY    73  64  73 SW3       29.92S
STANTON        PTCLDY    74  66  77 W5        29.94R
DODGE CENTER   MOCLDY    73  66  78 NW8       29.96R
WINONA         CLOUDY    70  68  94 SE3       29.94R
AUSTIN         PTCLDY    73  66  78 NW9       29.96R
PRESTON        CLOUDY    67  66  96 W3        29.95R
$$
ABBREVIATIONS USED IN REMARKS
   TC - TEMPERATURES IN CELSIUS
  WCI - WIND CHILL INDEX
   HX - HEAT INDEX
  VSB - VISIBILITY
$$



USA.gov is the U.S. government's official web portal to all federal, state and local government web resources and services.